EW9178 Weather Reports


time (UTC)temp
F
wind
direction
speed
knots
gust
knots
rain 1hr
in
rain 24hr
in
rain mn
in
humidity
%
barometer
mb
20260503021023 55 250 0.0 0.9 0.00 0.33 0.28 94 1011.1
20260503020030 55 242 0.0 1.7 0.00 0.33 0.28 94 1011.2
20260503015043 55 259 0.0 1.7 0.00 0.33 0.28 94 1011.2
20260503014030 55 0.0 0.0 0.00 0.33 0.28 94 1011.1
20260503013041 55 260 0.9 1.7 0.00 0.33 0.28 94 1011.1
20260503012048 55 79 0.0 1.7 0.00 0.33 0.28 94 1011.2
20260503011041 55 333 0.0 0.9 0.00 0.33 0.28 94 1011.4
20260503010029 55 315 0.9 1.7 0.00 0.33 0.28 94 1011.5
20260503005020 55 53 0.9 2.6 0.00 0.33 0.28 94 1011.5
20260503004049 55 331 0.0 1.7 0.00 0.33 0.28 94 1011.6
20260503003020 55 266 0.0 0.9 0.01 0.33 0.28 94 1011.8
20260503002027 55 0.0 0.0 0.03 0.33 0.28 93 1011.8
20260503001020 55 60 0.0 1.7 0.07 0.33 0.28 93 1011.8
20260503000027 55 328 0.0 1.7 0.13 0.33 0.28 93 1012.1
20260502235018 55 239 0.9 1.7 0.17 0.33 0.28 93 1011.8
20260502234048 55 40 0.9 2.6 0.19 0.33 0.28 93 1011.8
20260502233019 55 84 0.9 1.7 0.25 0.32 0.27 92 1012.2
20260502232026 56 78 0.0 1.7 0.25 0.30 0.25 92 1012.4
20260502231018 56 68 1.7 2.6 0.21 0.26 0.21 91 1013.3
20260502230026 56 88 0.0 0.9 0.15 0.20 0.15 90 1013.8
20260502225039 56 74 0.0 0.9 0.11 0.16 0.11 89 1014.1
20260502224027 57 63 0.0 0.9 0.10 0.14 0.09 86 1014.3
20260502223017 57 235 0.9 5.2 0.07 0.07 0.02 83 1014.6
20260502222026 57 248 0.9 2.6 0.05 0.05 0.00 85 1014.7
20260502221018 57 246 0.9 3.5 0.05 0.05 0.00 87 1013.7
20260502220024 58 82 0.9 1.7 0.05 0.05 0.00 85 1013.5
20260502215032 58 0.0 0.0 0.05 0.05 0.05 84 1013.6
20260502214023 59 325 0.0 1.7 0.04 0.04 0.04 80 1013.7
20260502213037 59 333 0.9 2.6 0.00 0.00 0.00 81 1013.6
20260502212023 58 73 0.0 1.7 0.00 0.00 0.00 83 1013.0
20260502211032 58 43 0.0 0.9 0.00 0.00 0.00 83 1013.1
20260502210023 58 53 0.9 1.7 0.00 0.00 0.00 84 1013.1
20260502205031 58 67 0.9 3.5 0.00 0.00 0.00 85 1013.4
20260502204023 58 48 0.9 2.6 0.00 0.00 0.00 85 1013.5
20260502203031 58 49 0.0 1.7 0.00 0.00 0.00 85 1013.7
20260502202024 58 77 0.9 1.7 0.00 0.00 0.00 84 1013.7
20260502201031 59 42 0.9 2.6 0.00 0.00 0.00 82 1013.9
20260502200022 59 34 0.9 1.7 0.00 0.00 0.00 76 1014.1
20260502195051 60 67 0.0 0.9 0.00 0.00 0.00 68 1014.0
20260502194022 60 86 0.0 0.9 0.00 0.00 0.00 65 1014.0
20260502193029 60 74 0.0 0.9 0.00 0.00 0.00 63 1014.1
20260502192022 60 81 0.0 0.9 0.00 0.00 0.00 61 1014.1
20260502191030 61 88 0.0 0.9 0.00 0.00 0.00 60 1014.1
20260502190044 61 71 0.0 0.9 0.00 0.00 0.00 60 1014.1
20260502185030 62 71 0.0 0.9 0.00 0.00 0.00 60 1014.0
20260502184021 62 70 0.9 2.6 0.00 0.00 0.00 59 1014.0
20260502183030 63 98 0.9 1.7 0.00 0.00 0.00 60 1014.0
20260502182021 63 76 0.9 2.6 0.00 0.00 0.00 61 1014.0
20260502181030 63 125 0.9 2.6 0.00 0.00 0.00 61 1014.0
20260502164020 71 185 1.7 6.1 0.00 0.00 0.00 50 1014.8
20260502163029 72 221 0.9 2.6 0.00 0.00 0.00 49 1015.0
20260502162020 73 200 1.7 3.5 0.00 0.00 0.00 50 1015.0
20260502161027 74 180 0.9 2.6 0.00 0.00 0.00 51 1014.8
20260502152019 73 219 1.7 2.6 0.00 0.00 0.00 52 1015.3
20260502151026 73 207 0.9 2.6 0.00 0.00 0.00 53 1015.4
20260502123025 70 233 3.5 7.0 0.00 0.00 0.00 63 1016.8
20260502122046 70 218 2.6 7.0 0.00 0.00 0.00 63 1017.0
20260502121037 70 233 2.6 6.1 0.00 0.00 0.00 64 1016.9
20260502115031 71 241 2.6 5.2 0.00 0.00 0.00 63 1017.0
20260502114022 71 247 2.6 6.1 0.00 0.00 0.00 61 1017.1
20260502113029 70 254 2.6 5.2 0.00 0.00 0.00 61 1017.1
20260502112018 69 238 2.6 5.2 0.00 0.00 0.00 63 1017.2
20260502111047 70 234 1.7 7.0 0.00 0.00 0.00 63 1017.4
20260502110122 71 236 2.6 7.0 0.00 0.00 0.00 60 1017.4
20260502105025 70 248 2.6 7.0 0.00 0.00 0.00 61 1017.3
20260502104017 70 241 2.6 7.0 0.00 0.00 0.00 61 1017.4
20260502103024 69 235 2.6 7.0 0.00 0.00 0.00 62 1017.5
20260502102017 69 254 2.6 5.2 0.00 0.00 0.00 63 1017.6
20260502101044 68 242 2.6 7.0 0.00 0.00 0.00 64 1017.6
20260502091020 63 242 0.9 2.6 0.00 0.00 0.00 65 1017.6
20260502071019 58 216 0.0 0.9 0.00 0.00 0.00 59 1017.7
20260502070026 57 239 0.9 1.7 0.00 0.00 0.00 59 1017.9
20260502065019 57 226 0.9 2.6 0.00 0.00 0.00 59 1017.8
20260502064046 57 231 0.9 1.7 0.00 0.00 0.00 59 1017.8
20260502063017 57 231 0.0 0.9 0.00 0.00 0.00 59 1017.9
20260502062026 57 238 0.9 1.7 0.00 0.00 0.00 59 1017.9
20260502061017 57 241 0.9 2.6 0.00 0.00 0.00 58 1018.0
20260502060024 57 236 1.7 3.5 0.00 0.00 0.00 58 1017.9
20260502055018 56 249 0.9 2.6 0.00 0.00 0.00 59 1017.7
20260502054024 54 138 0.0 0.9 0.00 0.00 0.00 64 1017.4
20260502053021 53 0.0 0.0 0.00 0.00 0.00 66 1017.4
20260502052025 52 0.0 0.0 0.00 0.00 0.00 68 1017.7
20260502051016 51 282 0.0 0.9 0.00 0.00 0.00 71 1017.7
20260502050028 50 162 0.0 0.9 0.00 0.00 0.00 72 1017.7
20260502045032 49 0.0 0.0 0.00 0.00 0.00 73 1017.7
20260502044024 49 250 0.0 0.9 0.00 0.00 0.00 72 1017.7
20260502043032 49 0.0 0.0 0.00 0.00 0.00 73 1017.6
20260502042044 50 0.0 0.0 0.00 0.00 0.00 72 1017.5
20260502041051 50 0.0 0.0 0.00 0.00 0.00 71 1017.6
20260502040022 49 0.0 0.0 0.00 0.00 0.00 72 1017.7
20260502035029 49 0.0 0.0 0.00 0.00 0.00 72 1017.8
20260502034103 49 0.0 0.0 0.00 0.00 0.00 72 1017.8
20260502033030 50 0.0 0.0 0.00 0.00 0.00 71 1017.9
20260502032021 50 0.0 0.0 0.00 0.00 0.00 71 1018.0
20260502031050 50 0.0 0.0 0.00 0.00 0.00 71 1018.0
20260502030026 50 0.0 0.0 0.00 0.00 0.00 71 1018.2
20260502025111 50 0.0 0.0 0.00 0.00 0.00 71 1018.3
20260502024021 50 0.0 0.0 0.00 0.00 0.00 71 1018.3
20260502023030 50 0.0 0.0 0.00 0.00 0.00 70 1018.2
20260502022021 50 0.0 0.0 0.00 0.00 0.00 69 1018.3